Regional Weather Roundup
Issued by NWS Memphis, TN

Home | Current Version | Previous Version | Text Only | Print | Product List | Glossary On
Versions: 1 2 3 4 5 6 7 8 9 10 11 12 13 14 15 16 17 18 19 20 21 22 23 24 25 26 27 28 29 30 31 32 33 34 35 36 37 38 39 40 41 42 43 44 45 46 47 48 49 50
000
ASUS44 KMEG 240900
RWRMEG
MEMPHIS CWA HOURLY WEATHER ROUNDUP
NATIONAL WEATHER SERVICE MEMPHIS TN
400 AM CDT SUN JUL 24 2016

...WEST TENNESSEE...

CITY           SKY/WX    TMP DP  RH WIND       PRES   REMARKS
MEMPHIS INTL   LGT RAIN  80  75  84 S9        29.94S
NWS MEMPHIS      N/A     78 N/A N/A MISG        N/A
JACKSON        PTCLDY    75  75 100 CALM      29.96S
DYERSBURG      PTCLDY    75  73  94 MISG      29.96R


...EASTERN ARKANSAS...

CITY           SKY/WX    TMP DP  RH WIND       PRES   REMARKS
JONESBORO      LGT RAIN  76  73  91 CALM      29.93S
WEST MEMPHIS   CLOUDY    76  74  93 CALM      29.93R
BATESVILLE     CLOUDY    73  70  88 CALM      29.94S
WALNUT RIDGE   PTCLDY    75  73  94 CALM      29.93S
BLYTHEVILLE    MOCLDY    79  76  90 CALM      29.94R
SEARCY         CLOUDY    73  73 100 CALM      29.95
STUTTGART      CLOUDY    75  70  83 CALM      29.94R
PINE BLUFF     CLOUDY    74  72  93 CALM      29.94R
MONTICELLO     CLEAR     75  72  90 E3        29.93S


...NORTH MISSISSIPPI...

CITY           SKY/WX    TMP DP  RH WIND       PRES   REMARKS
TUPELO         PTCLDY    78  73  84 CALM      29.97S
TUNICA         CLOUDY    75  73  94 S3        29.95S
CLARKSDALE     MOCLDY    77  77 100 CALM      29.95R
GREENWOOD      PTCLDY    74  71  91 CALM      29.95R
COLUMBUS       PTCLDY    76  76 100 SE2       29.96S
GOLDEN TRIANGL PTCLDY    75  72  88 CALM      29.96S


...SOUTHEAST MISSOURI...

CITY           SKY/WX    TMP DP  RH WIND       PRES   REMARKS
WEST PLAINS    PTCLDY    74  69  85 CALM      29.98S
POPLAR BLUFF   CLEAR     77  75  93 CALM      29.92F
CAPE GIRARDEAU PTCLDY    76  74  93 CALM      29.93S


...NORTHWEST ALABAMA...

CITY           SKY/WX    TMP DP  RH WIND       PRES   REMARKS
MUSCLE SHOALS  CLEAR     74  70  87 SE5       29.99S


...MIDDLE TENNESSEE...

CITY           SKY/WX    TMP DP  RH WIND       PRES   REMARKS
NASHVILLE      MOCLDY    74  69  85 SE3       29.99S
CLARKSVILLE    CLEAR     75  72  90 E3        29.97F


...WESTERN KENTUCKY...

CITY           SKY/WX    TMP DP  RH WIND       PRES   REMARKS
PADUCAH        CLEAR     77  73  87 CALM      29.94S
FORT CAMPBELL  CLEAR     76  74  96 E1        29.97F


...CENTRAL ARKANSAS...

CITY           SKY/WX    TMP DP  RH WIND       PRES   REMARKS
LITTLE ROCK    CLOUDY    77  72  84 CALM      29.94R


SKY/WX REPORTED AS FAIR MEANS FEW OR NO CLOUDS BELOW
12 THOUSAND FEET.




USA.gov is the U.S. government's official web portal to all federal, state and local government web resources and services.